Miscellaneous Local Product
Issued by NWS North Platte, NE

Home | Current Version | Previous Version | Text Only | Print | Product List | Glossary On
Versions: 1 2 3 4 5 6 7 8 9 10 11 12 13 14 15 16 17 18 19 20 21 22 23 24 25 26 27 28 29 30 31 32 33 34 35 36 37 38 39 40 41 42 43 44 45 46 47 48 49 50
603
AXUS43 KLBF 022310
MISLBF


WESTERN AND NORTH CENTRAL NEBRASKA HOURLY WEATHER ROUNDUP
NATIONAL WEATHER SERVICE NORTH PLATTE NE
500 PM CST FRI DEC 02 2016

NOTE: "FAIR" INDICATES FEW OR NO CLOUDS BELOW 12,000 FEET WITH NO
SIGNIFICANT WEATHER AND/OR OBSTRUCTIONS TO VISIBILITY.

NOTE: STATIONS NOT REPORTING VARIABLES SUCH AS SKY/WEATHER OR
PRESSURE ARE PROVIDED BY RAWS AND APRS NETWORKS AND ARE NOT UNDER
NATIONAL WEATHER SERVICE QUALITY CONTROL.

...OBSERVATIONS IN AND NEAR THE EASTERN PANHANDLE OF NEBRASKA...

CITY           SKY/WX    TMP DP  RH WIND       PRES   REMARKS
PINE RIDGE     CLEAR     29  24  82 NE7       30.19S WCI  22
CHADRON        CLOUDY    40  19  43 W3        30.18S
ALLIANCE       MOCLDY    38  18  44 CALM      30.17S
SIDNEY         PTCLDY    35  22  58 S5        30.20S WCI  31
CRESCENT LAKE    N/A     38  20  48 CALM        N/A
$$

...OBSERVATIONS IN NORTHERN NEBRASKA AND FAR SOUTHERN SOUTH DAKOTA...

CITY           SKY/WX    TMP DP  RH WIND       PRES   REMARKS
WINNER         CLOUDY    35  26  69 CALM      30.25F
VALENTINE      CLEAR     36  25  64 NW6       30.22S WCI  31
THEDFORD       CLEAR     41  22  45 CALM      30.22S
AINSWORTH      CLEAR     34  25  69 NE6       30.22S WCI  29
O`NEILL        CLEAR     35  27  73 CALM      30.26S
ORD            CLEAR     39  22  50 E3        30.25S
BROKEN BOW     CLEAR     38  25  59 S6        30.24R WCI  33
VALENTINE NWR    N/A     42  24  48 N5          N/A
BUTTE            N/A     33  27  77 N3          N/A
HALSEY           N/A     45  20  36 CALM        N/A
CHAMBERS         N/A     33  20  59 CALM        N/A
EWING            N/A     33  27  80 CALM        N/A
$$

...OBSERVATIONS IN SOUTHWEST NEBRASKA AND FAR NORTHEAST COLORADO...

CITY           SKY/WX    TMP DP  RH WIND       PRES   REMARKS
WRAY           FAIR      41  23  48 E5        30.21
HOLYOKE        FAIR      41  23  48 CALM      30.21F
IMPERIAL       MOCLDY    39  23  52 CALM      30.22F
OGALLALA       CLEAR     39  24  55 CALM      30.22S
NORTH PLATTE   CLEAR     40  20  44 CALM      30.23F
MCCOOK         CLEAR     39  22  50 E3        30.25S
LEXINGTON      CLEAR     37  26  63 S3        30.26F
STAPLETON        N/A     38  22  52 CALM        N/A
GOTHENBURG       N/A     38  23  55 CALM        N/A
CALLAWAY         N/A     35  23  62 S5          N/A  WCI  31
$$

...OBSERVATIONS IN CENTRAL LINCOLN COUNTY AREA...

CITY           SKY/WX    TMP DP  RH WIND       PRES   REMARKS
N.P. AIRPORT   CLEAR     40  20  44 CALM      30.23F
N.P. DOWNTOWN    N/A     40  22  49 CALM        N/A
N.P. SOUTHEAST   N/A     41  22  47 CALM        N/A
N.P. HILLCREST   N/A     41  22  47 CALM        N/A
$$

...SOME OBSERVATIONS FROM AROUND THE REGION...

CITY           SKY/WX    TMP DP  RH WIND       PRES   REMARKS
LARAMIE        FLURRIES  23  15  71 SE12      30.07F WCI  12
CHEYENNE       LGT SNOW  27  21  78 S8        30.13S WCI  19
DENVER         CLOUDY    31  21  66 E9        30.14S WCI  23
AKRON          PTCLDY    35  18  49 SE7       30.18F WCI  29
SCOTTSBLUFF    CLEAR     36  19  50 S5        30.19R WCI  32
RAPID CITY     PTCLDY    34  25  69 E7        30.18F WCI  28
BISMARCK       CLOUDY    26  21  81 S6        30.24S WCI  19
PIERRE         CLOUDY    31  24  75 CALM      30.25R
SIOUX FALLS    CLOUDY    31  26  82 NW10      30.29S WCI  22
OMAHA          MOCLDY    36  28  73 N3        30.31R
GRAND ISLAND   CLEAR     36  25  64 CALM      30.29R
KANSAS CITY    PTCLDY    43  24  47 N5        30.29R
WICHITA        PTCLDY    50  20  30 NE10      30.22S
OKLAHOMA CITY  MOCLDY    53  32  44 NE6       30.12F
DALLAS         CLOUDY    63  34  33 E10       30.08R
AMARILLO       CLOUDY    47  21  35 NE12      30.10R
DODGE CITY     MOCLDY    46  13  26 NE7       30.19F
HAYS           CLEAR     42  21  43 NE7       30.25S
GOODLAND       CLOUDY    39  14  36 NE5       30.20F
$$




USA.gov is the U.S. government's official web portal to all federal, state and local government web resources and services.